Wind_Speed
29 29 29 29 29 30 30 30 29 29 29 28 28 29 32 31 29 26 26 26 27 27 29 33 31 31 33 31 26 26 32 29 23 21 21 26 29 26 27 32 35 35 34 31 30 31 33 34 34 35 33 32
27 27 28 28 28 29 29 29 29 29 29 28 28 29 28 24 20 17 20 23 25 29 31 32 32 31 30 28 19 16 30 33 22 18 19 24 27 24 22 25 31 36 37 36 34 32 32 33 35 35 31 30
25 25 27 28 28 28 27 27 26 26 27 27 27 27 20 12 9 5 10 19 22 28 29 27 29 33 33 31 25 19 26 29 23 21 23 25 26 24 23 24 28 33 36 38 38 36 32 32 34 34 31 30
25 26 27 28 29 29 27 25 24 23 24 25 26 25 18 12 10 4 2 10 15 21 24 24 25 28 32 31 29 27 26 24 23 24 27 27 25 27 28 28 29 32 36 38 38 37 35 34 32 31 32 32
28 29 28 28 29 30 28 25 23 22 22 23 25 25 21 18 15 13 13 11 11 15 17 18 18 17 21 24 24 25 23 20 23 25 26 25 22 27 30 29 29 31 34 35 36 37 37 37 34 32 33 34
32 32 31 30 29 29 29 26 24 23 22 22 23 25 24 22 21 22 23 17 14 15 16 15 14 12 14 16 18 21 21 19 23 26 24 23 23 26 28 27 28 31 32 32 34 36 38 39 38 37 37 37
33 34 33 32 30 29 29 27 25 23 23 22 23 25 25 23 20 19 19 17 16 16 17 17 18 18 15 15 16 17 19 19 23 27 25 24 26 28 27 27 26 28 29 29 31 34 36 38 40 40 39 39
34 34 34 33 31 29 29 28 26 24 24 24 23 25 26 24 21 19 19 20 19 18 18 18 19 20 17 17 17 15 16 18 23 28 29 27 29 31 31 30 26 25 25 26 29 32 34 36 38 39 39 40
35 35 34 33 31 29 28 28 27 24 23 25 25 26 26 26 24 21 20 21 21 20 20 20 20 19 19 20 19 17 16 17 23 29 33 31 31 33 33 31 27 26 26 26 27 29 33 35 36 37 37 39
35 35 34 32 30 28 26 27 27 26 24 24 26 27 26 27 28 26 24 23 24 24 22 22 20 19 20 20 20 19 16 15 18 22 27 28 28 30 30 30 29 28 28 28 29 29 30 33 36 36 36 37
35 34 33 32 30 27 25 24 25 27 25 25 26 28 29 30 31 31 30 27 26 26 26 23 21 19 20 21 21 19 17 16 15 15 16 19 21 24 26 28 30 30 29 29 30 30 31 32 33 36 37 37
34 32 31 30 29 28 26 23 22 25 27 27 27 29 31 32 33 33 33 30 28 27 28 27 23 22 22 23 23 20 19 19 18 16 16 17 19 21 24 26 28 29 29 29 29 30 32 32 32 33 36 38
34 32 29 27 26 26 25 24 22 22 26 28 29 29 31 32 33 34 32 31 31 30 31 29 25 25 25 26 26 23 21 21 20 19 18 18 19 21 23 25 25 26 27 27 28 29 30 31 31 31 33 35
35 33 31 28 25 24 24 24 23 21 23 28 30 30 31 33 33 33 32 31 32 32 32 30 28 28 28 28 30 28 24 22 22 22 20 20 20 22 24 25 25 25 26 26 26 26 27 28 29 30 30 32
35 34 33 31 29 26 24 23 23 22 22 25 29 31 32 33 32 31 30 30 31 32 32 30 29 30 31 32 33 31 27 25 25 24 22 21 22 24 26 27 27 27 26 25 25 25 25 26 26 27 28 29
34 34 35 34 33 31 27 24 23 23 22 23 26 30 33 33 33 30 27 27 30 32 32 30 30 31 33 35 35 32 28 27 28 26 24 23 24 26 28 30 30 30 29 27 24 24 24 25 26 26 27 27
35 35 35 35 35 35 33 30 27 25 24 23 24 26 30 34 33 30 26 26 28 31 33 32 30 31 32 34 36 35 30 29 30 28 26 25 26 28 30 32 32 32 32 30 28 26 25 26 27 27 27 28
36 35 35 35 36 36 36 36 33 31 28 26 25 25 26 30 33 33 31 29 28 30 32 34 33 31 31 33 37 37 32 32 32 31 30 27 27 29 31 33 34 35 34 34 33 31 28 28 28 28 28 28
37 37 36 36 36 36 36 37 37 36 34 31 29 27 26 26 29 34 36 33 30 30 31 34 35 34 33 34 38 37 34 35 36 34 33 30 29 31 32 33 34 36 36 37 37 36 34 32 30 29 29 29
36 37 37 37 36 36 36 36 37 37 37 36 34 32 30 28 27 29 35 36 33 31 31 33 35 37 37 37 38 38 36 39 40 38 36 34 33 33 33 34 34 36 37 38 39 40 39 38 36 35 33 32
37 37 37 37 37 36 36 36 36 37 37 37 37 36 34 32 30 29 30 36 38 35 33 32 32 35 39 41 41 41 41 44 43 41 40 39 38 37 37 36 35 35 37 38 38 40 42 43 41 40 39 38
39 38 38 37 37 36 36 36 36 36 37 37 37 37 36 35 34 33 31 32 37 40 39 36 33 32 34 40 44 45 46 47 45 42 43 44 42 40 40 39 37 35 36 38 39 38 40 44 46 45 44 43
40 40 40 40 39 38 37 37 36 36 37 37 38 38 38 37 36 35 35 33 34 38 42 42 40 36 33 35 41 46 48 49 46 42 44 47 47 43 41 41 40 38 37 38 40 40 39 41 45 47 46 46
41 41 42 43 43 42 41 40 40 39 38 38 38 38 38 38 37 36 35 35 34 35 39 43 45 43 39 35 37 42 47 49 46 44 45 49 50 48 45 44 43 42 40 39 40 41 42 41 42 44 45 45
42 42 43 44 45 45 45 45 44 43 41 40 40 39 39 39 39 38 37 36 35 35 37 40 44 46 45 42 38 36 38 44 46 46 48 52 52 51 50 49 47 46 44 42 40 40 43 44 44 44 44 44
44 44 44 45 46 47 47 47 46 45 44 43 42 41 41 41 40 40 39 38 37 36 36 38 41 43 45 45 43 39 35 35 41 44 47 51 52 52 53 51 51 51 49 46 43 41 42 44 46 48 47 47
46 46 45 46 46 47 48 48 47 46 45 44 43 42 41 42 42 42 42 41 40 38 37 38 40 42 43 44 45 46 42 36 35 38 42 47 50 52 54 52 50 51 51 50 46 44 44 44 46 49 51 51
46 47 47 46 46 46 47 47 47 46 45 44 42 41 40 40 40 41 42 42 42 41 40 39 40 42 43 43 43 46 47 45 40 36 36 39 44 48 52 51 49 48 49 51 50 47 46 46 46 48 50 52
46 46 47 47 47 47 47 47 47 45 44 42 41 39 38 37 37 38 39 41 42 42 42 41 41 42 44 45 44 44 45 47 48 44 39 36 37 39 41 43 46 47 46 47 49 50 49 48 49 49 47 47
46 46 46 47 47 47 46 46 47 46 44 41 40 38 37 37 36 36 37 38 40 41 42 42 41 42 43 45 46 46 45 45 47 48 46 42 39 36 34 33 37 42 44 45 47 49 51 51 52 51 48 45
45 45 46 46 46 46 46 45 45 45 44 41 39 37 36 36 35 35 35 35 37 39 40 41 41 41 42 44 46 47 47 46 46 46 47 46 45 43 39 35 33 34 38 42 44 46 47 49 52 53 52 48
Wind_Direction
296 293 290 288 285 282 280 281 283 283 283 283 284 285 288 288 285 275 266 262 260 260 251 246 236 218 216 211 201 202 209 207 205 215 215 214 217 217 221 225 226 228 228 227 228 229 231 233 235 239 237 233
299 299 295 293 291 286 282 282 282 281 280 279 280 284 290 292 289 278 264 258 250 247 241 236 233 227 220 210 211 211 209 213 217 225 226 218 215 215 217 221 222 225 226 223 222 223 230 235 235 238 236 230
301 303 303 301 298 293 288 285 283 280 277 275 275 279 286 275 248 225 244 246 232 231 231 226 226 231 233 228 234 232 217 224 235 235 233 227 223 225 227 229 227 226 226 222 221 220 225 234 234 233 232 228
301 304 307 306 303 299 295 291 287 282 276 272 271 272 271 248 226 163 190 230 219 219 223 226 226 229 235 238 241 238 231 235 239 237 240 242 237 235 236 237 234 230 227 224 221 218 221 231 231 226 226 226
297 299 303 305 303 300 298 296 292 285 278 271 269 267 260 250 253 274 287 273 240 226 223 224 225 233 241 244 246 239 234 239 242 238 239 246 244 238 239 240 236 230 230 230 225 218 217 224 225 222 223 225
293 295 298 301 303 300 297 296 294 290 283 273 267 264 259 254 259 269 278 278 260 248 245 236 234 263 275 264 260 250 242 244 251 249 244 248 246 240 241 245 241 234 236 240 233 223 217 218 221 221 224 225
295 296 298 300 302 300 296 295 294 290 286 278 268 264 260 258 265 271 273 270 266 269 266 255 254 272 286 281 275 265 253 241 244 253 252 249 248 247 249 251 247 237 237 240 235 228 223 220 221 221 223 225
299 300 301 301 301 300 296 293 291 287 283 279 270 265 264 264 267 269 269 270 273 277 274 269 268 274 282 284 277 271 266 244 233 244 248 244 245 249 251 251 245 235 234 236 235 231 227 224 223 223 221 222
303 304 305 304 303 301 296 292 289 284 279 276 271 265 264 264 263 259 260 268 274 274 271 270 273 278 281 285 280 271 270 251 234 240 246 243 241 246 250 251 245 237 235 235 236 233 230 227 224 224 223 221
306 307 308 308 306 305 300 294 290 284 274 269 268 264 258 257 257 253 253 261 268 271 270 267 269 275 275 277 280 270 260 248 236 240 247 247 246 251 255 254 249 243 239 237 236 234 232 230 226 224 224 223
308 309 309 309 308 307 305 299 291 284 275 264 261 262 259 257 257 255 253 256 261 266 267 268 267 269 269 272 275 265 253 246 241 243 251 255 255 258 259 257 254 248 243 240 238 236 234 232 228 224 223 223
311 311 310 309 308 308 307 304 294 284 277 267 258 257 258 258 259 259 257 255 256 258 260 266 270 266 266 272 272 261 254 253 252 255 259 263 263 261 259 255 252 249 245 241 239 237 235 232 230 227 224 223
314 314 313 311 309 306 305 305 300 288 277 271 262 255 254 255 256 257 258 257 256 256 257 262 265 260 260 264 264 257 253 255 258 262 263 266 267 261 256 249 245 245 243 240 237 236 235 233 231 228 225 222
318 317 316 314 312 308 304 303 302 296 282 273 267 259 253 252 253 254 255 256 256 257 257 259 257 253 254 256 257 256 251 253 260 264 262 264 265 259 251 245 242 241 241 239 236 234 234 234 232 229 226 223
320 320 319 317 316 313 309 304 301 300 292 279 270 264 258 253 252 252 255 258 259 259 256 255 253 250 252 253 254 253 249 251 259 261 259 261 262 256 251 245 240 239 239 238 236 234 232 231 231 228 227 226
321 320 320 319 318 316 313 308 303 301 298 290 277 267 261 256 252 249 255 261 260 260 257 253 251 250 251 252 252 250 249 252 253 253 256 261 260 253 252 249 241 237 237 236 236 236 234 231 228 224 225 227
323 322 320 318 317 317 315 313 308 303 299 296 289 277 265 259 254 246 249 258 259 259 259 255 251 248 247 250 252 249 249 254 248 244 250 256 255 249 249 250 243 237 235 234 233 234 235 234 231 226 225 227
324 322 321 319 317 316 315 314 312 308 303 299 295 292 280 266 256 247 245 253 256 258 259 257 254 249 243 246 251 249 249 254 247 241 243 243 243 244 247 247 242 238 235 234 232 231 232 233 233 230 227 227
322 321 320 319 317 315 314 312 312 310 308 304 299 296 293 282 266 252 248 252 254 255 255 253 252 250 244 241 245 247 251 253 245 239 241 237 232 238 244 245 241 239 237 236 233 230 228 229 230 229 227 225
321 320 319 317 315 313 312 310 309 308 308 306 304 299 296 293 284 266 253 251 252 253 252 249 246 246 244 242 242 243 247 251 246 240 240 236 231 233 239 243 243 239 237 236 234 232 227 225 226 226 226 225
321 320 318 316 315 312 310 308 306 305 304 303 303 302 298 295 292 284 267 254 251 253 254 252 250 246 242 240 241 242 242 244 245 245 244 240 235 233 234 237 241 241 238 235 232 231 228 224 223 225 225 225
321 320 318 316 314 312 309 306 304 301 300 298 298 297 297 296 293 290 284 269 257 255 256 258 258 256 249 241 237 236 236 235 236 242 248 248 242 236 235 234 235 238 240 238 233 230 229 227 224 224 225 226
319 318 316 314 312 310 307 305 303 300 297 295 293 292 291 292 291 290 288 283 270 260 259 260 261 261 260 252 241 235 233 233 233 237 245 249 248 242 239 237 234 235 237 239 237 233 230 228 226 225 226 226
316 314 312 310 309 307 305 303 301 299 297 294 292 290 288 287 288 287 286 285 281 272 264 262 261 261 261 259 253 242 234 234 237 240 242 245 247 245 243 241 236 235 235 236 237 235 233 231 228 227 226 226
314 312 311 310 308 307 306 305 303 300 298 295 292 290 288 287 285 285 284 282 281 278 272 266 263 262 261 260 259 253 241 234 236 240 240 240 243 242 242 242 240 240 239 236 235 236 235 233 231 230 229 228
314 313 312 312 310 309 308 307 306 304 301 298 295 291 289 286 285 284 283 282 280 278 275 271 268 266 265 262 259 260 255 243 238 239 237 236 237 238 239 239 240 241 242 240 238 238 238 237 236 234 232 231
314 314 313 312 311 311 310 309 307 306 305 303 300 296 292 288 285 284 282 282 281 279 276 273 271 270 269 266 262 261 260 255 247 244 241 237 234 235 238 239 237 237 237 237 239 240 241 240 239 238 235 234
314 313 312 311 310 310 309 309 308 307 306 304 303 300 297 292 288 285 282 280 280 280 278 275 273 272 271 271 268 265 263 261 256 252 248 243 238 236 237 238 238 236 234 233 234 236 237 238 239 239 238 236
313 312 311 310 309 309 309 308 307 306 305 303 302 299 297 293 289 285 282 279 277 276 276 275 273 272 272 273 273 272 269 266 263 260 256 250 244 241 239 239 239 238 236 233 232 231 232 234 239 240 238 238
313 312 311 310 309 308 308 307 306 305 304 302 300 297 295 292 289 286 282 278 275 273 272 272 271 269 269 271 273 275 275 273 270 267 265 259 253 250 248 246 243 240 238 236 234 233 232 234 239 240 238 238
313 311 310 309 308 307 307 306 305 304 303 302 299 296 294 291 289 286 284 280 277 274 271 271 270 267 266 267 269 272 273 275 274 273 272 268 263 259 258 257 254 248 242 239 237 237 237 237 238 239 239 238
Height
3116 3115 3114 3113 3112 3111 3111 3111 3111 3110 3109 3108 3106 3105 3103 3102 3101 3100 3099 3099 3099 3100 3099 3098 3096 3094 3094 3094 3094 3095 3097 3098 3098 3098 3098 3099 3099 3102 3103 3104 3107 3107 3109 3111 3112 3114 3114 3114 3116 3117 3118 3120
3114 3113 3111 3110 3109 3108 3108 3109 3108 3107 3106 3105 3104 3103 3101 3100 3098 3097 3096 3096 3095 3095 3095 3094 3094 3092 3091 3091 3091 3091 3092 3094 3095 3095 3095 3095 3096 3098 3099 3101 3103 3104 3105 3106 3107 3109 3111 3112 3113 3114 3116 3117
3112 3111 3109 3108 3106 3105 3105 3105 3105 3104 3103 3102 3101 3100 3099 3097 3095 3093 3093 3093 3091 3091 3092 3092 3092 3091 3090 3091 3091 3091 3091 3093 3094 3094 3093 3093 3095 3096 3097 3099 3100 3101 3101 3102 3103 3105 3107 3109 3110 3111 3113 3114
3110 3109 3108 3106 3104 3102 3102 3102 3102 3101 3100 3099 3098 3098 3097 3095 3093 3090 3090 3091 3090 3089 3090 3090 3090 3090 3090 3090 3091 3091 3092 3093 3092 3092 3091 3092 3094 3095 3095 3096 3097 3098 3098 3099 3100 3101 3103 3106 3107 3108 3109 3110
3108 3107 3106 3104 3102 3100 3099 3099 3099 3098 3097 3096 3095 3095 3094 3094 3093 3091 3090 3091 3090 3089 3088 3088 3089 3090 3090 3090 3090 3090 3091 3091 3090 3090 3089 3090 3092 3092 3092 3093 3094 3095 3096 3096 3097 3098 3099 3101 3103 3104 3105 3106
3105 3104 3103 3102 3100 3098 3096 3096 3096 3095 3095 3094 3093 3092 3091 3091 3091 3090 3089 3090 3090 3088 3087 3087 3088 3089 3089 3089 3089 3089 3089 3090 3089 3088 3088 3088 3089 3088 3089 3090 3092 3092 3093 3093 3093 3094 3095 3097 3099 3100 3101 3102
3103 3102 3100 3099 3097 3095 3094 3093 3093 3093 3092 3091 3090 3089 3089 3088 3089 3088 3087 3087 3088 3087 3086 3087 3087 3087 3087 3087 3087 3087 3087 3088 3088 3086 3086 3087 3086 3086 3087 3088 3088 3089 3089 3089 3090 3091 3092 3093 3095 3095 3097 3098
3100 3099 3097 3096 3095 3093 3091 3090 3090 3090 3089 3088 3088 3087 3086 3086 3086 3086 3086 3085 3085 3085 3085 3085 3085 3085 3085 3085 3085 3085 3085 3085 3085 3084 3084 3084 3084 3084 3085 3086 3086 3086 3086 3086 3086 3087 3089 3090 3091 3092 3092 3094
3097 3095 3094 3093 3092 3090 3089 3087 3086 3087 3087 3086 3085 3084 3084 3084 3084 3084 3084 3083 3083 3083 3083 3082 3082 3082 3082 3082 3082 3083 3082 3082 3082 3082 3081 3081 3081 3081 3082 3082 3083 3083 3083 3083 3083 3084 3085 3086 3087 3089 3089 3090
3093 3092 3090 3089 3088 3087 3086 3084 3083 3083 3083 3083 3082 3081 3081 3081 3080 3081 3081 3081 3081 3081 3081 3081 3080 3080 3080 3080 3080 3080 3080 3079 3079 3079 3078 3078 3079 3079 3079 3079 3080 3080 3080 3080 3081 3081 3082 3083 3084 3085 3086 3087
3091 3089 3087 3086 3084 3084 3083 3081 3080 3079 3079 3079 3079 3078 3077 3077 3077 3077 3078 3078 3078 3078 3079 3079 3078 3078 3077 3077 3077 3077 3077 3077 3077 3076 3076 3076 3076 3076 3076 3077 3077 3077 3077 3077 3078 3078 3079 3080 3080 3081 3083 3085
3087 3086 3085 3083 3082 3080 3079 3078 3077 3076 3075 3075 3075 3075 3074 3073 3073 3073 3074 3074 3074 3075 3075 3076 3076 3075 3075 3075 3075 3075 3074 3074 3074 3074 3073 3073 3073 3073 3073 3074 3074 3074 3074 3074 3075 3075 3076 3077 3078 3078 3079 3081
3083 3083 3082 3081 3079 3078 3076 3075 3074 3073 3072 3072 3071 3071 3071 3070 3070 3070 3070 3071 3071 3071 3071 3072 3073 3073 3072 3072 3072 3072 3072 3072 3071 3071 3071 3071 3071 3071 3071 3071 3072 3072 3072 3072 3072 3072 3073 3074 3075 3076 3076 3078
3079 3078 3078 3077 3077 3075 3074 3073 3071 3070 3069 3068 3068 3068 3067 3067 3066 3066 3066 3066 3067 3067 3068 3069 3070 3070 3069 3068 3068 3069 3069 3069 3069 3068 3068 3068 3068 3068 3068 3069 3069 3070 3070 3070 3070 3070 3070 3071 3072 3073 3074 3075
3077 3075 3074 3073 3073 3072 3072 3070 3069 3068 3067 3065 3065 3065 3064 3063 3063 3063 3063 3063 3063 3063 3064 3064 3065 3066 3065 3065 3065 3065 3066 3066 3065 3065 3065 3065 3065 3065 3065 3065 3066 3067 3067 3068 3068 3068 3068 3069 3069 3070 3071 3072
3075 3074 3072 3070 3069 3069 3068 3068 3067 3065 3064 3063 3062 3061 3061 3060 3060 3060 3060 3060 3059 3059 3059 3060 3061 3061 3061 3061 3061 3062 3062 3062 3062 3062 3062 3062 3062 3063 3062 3062 3063 3063 3064 3065 3065 3066 3066 3067 3067 3067 3068 3069
3073 3072 3070 3069 3067 3066 3065 3064 3064 3063 3062 3060 3059 3058 3057 3057 3056 3056 3056 3056 3055 3055 3055 3056 3057 3057 3057 3058 3058 3058 3058 3058 3058 3059 3058 3059 3059 3060 3059 3059 3060 3060 3061 3061 3062 3063 3064 3064 3065 3065 3066 3066
3070 3069 3068 3067 3065 3064 3062 3061 3060 3060 3059 3058 3056 3055 3054 3053 3053 3052 3052 3051 3051 3051 3051 3052 3052 3053 3053 3054 3055 3055 3055 3054 3054 3055 3055 3055 3056 3056 3056 3056 3057 3057 3057 3058 3059 3060 3061 3062 3062 3063 3063 3064
3067 3066 3065 3064 3063 3061 3060 3058 3057 3056 3055 3054 3053 3052 3051 3050 3049 3049 3048 3048 3047 3047 3047 3047 3048 3048 3049 3050 3051 3051 3051 3051 3051 3051 3051 3052 3052 3053 3054 3054 3054 3054 3054 3055 3055 3056 3058 3059 3059 3060 3060 3061
3065 3064 3062 3060 3059 3058 3057 3056 3054 3053 3052 3050 3049 3048 3048 3047 3046 3045 3044 3044 3043 3043 3042 3043 3043 3043 3044 3045 3046 3046 3047 3047 3047 3046 3047 3047 3048 3049 3050 3050 3051 3051 3051 3051 3052 3053 3053 3055 3056 3057 3058 3058
3063 3061 3060 3058 3056 3055 3054 3053 3051 3050 3049 3047 3046 3045 3044 3043 3042 3042 3041 3040 3040 3038 3038 3037 3038 3038 3038 3039 3040 3041 3042 3042 3042 3042 3043 3043 3043 3044 3045 3046 3046 3047 3048 3048 3048 3049 3049 3050 3051 3052 3054 3055
3060 3058 3057 3055 3054 3052 3050 3049 3048 3047 3045 3044 3043 3041 3040 3039 3038 3038 3037 3036 3036 3035 3033 3032 3032 3033 3033 3033 3034 3035 3036 3036 3036 3037 3038 3038 3039 3040 3040 3041 3041 3042 3044 3044 3044 3045 3045 3046 3046 3047 3049 3050
3057 3055 3053 3051 3050 3049 3047 3045 3044 3043 3042 3041 3039 3038 3037 3035 3034 3033 3033 3032 3032 3031 3030 3028 3027 3027 3028 3027 3028 3028 3029 3029 3030 3032 3033 3033 3034 3035 3035 3036 3036 3037 3038 3038 3039 3040 3041 3041 3042 3042 3044 3045
3055 3053 3050 3048 3046 3044 3043 3041 3040 3039 3038 3037 3035 3034 3033 3032 3030 3029 3028 3028 3027 3026 3025 3024 3023 3022 3022 3022 3022 3022 3021 3023 3024 3026 3027 3028 3028 3029 3030 3031 3031 3032 3032 3033 3033 3035 3036 3037 3038 3038 3039 3040
3050 3048 3046 3044 3042 3040 3038 3036 3035 3033 3032 3032 3031 3030 3028 3027 3026 3025 3024 3023 3023 3022 3021 3020 3019 3018 3017 3017 3018 3017 3016 3016 3017 3019 3021 3022 3023 3023 3024 3025 3026 3026 3027 3028 3028 3029 3031 3032 3033 3034 3035 3036
3045 3043 3041 3039 3036 3034 3032 3030 3029 3028 3026 3025 3025 3024 3023 3022 3021 3020 3019 3019 3018 3018 3017 3016 3014 3013 3013 3012 3012 3012 3011 3010 3011 3013 3014 3015 3016 3018 3019 3019 3020 3020 3022 3023 3023 3024 3025 3026 3028 3029 3030 3031
3041 3039 3037 3035 3032 3029 3027 3025 3023 3022 3020 3019 3018 3018 3017 3017 3016 3015 3014 3013 3013 3012 3012 3011 3010 3009 3008 3007 3007 3007 3007 3006 3006 3007 3008 3008 3009 3011 3012 3014 3014 3014 3015 3016 3018 3019 3019 3020 3022 3022 3024 3026
3037 3034 3032 3030 3028 3026 3023 3021 3019 3017 3015 3014 3012 3011 3011 3010 3010 3009 3009 3008 3007 3007 3006 3006 3005 3004 3002 3002 3002 3001 3001 3001 3002 3002 3003 3003 3003 3004 3006 3007 3008 3008 3009 3010 3011 3012 3012 3014 3015 3016 3018 3020
3033 3030 3028 3025 3023 3021 3019 3016 3014 3012 3011 3009 3008 3006 3005 3004 3004 3003 3003 3002 3001 3001 3000 3000 3000 2999 2998 2996 2996 2996 2995 2995 2996 2997 2998 2998 2998 2999 3000 3001 3002 3002 3003 3004 3005 3006 3007 3008 3008 3010 3012 3013
3029 3026 3024 3021 3019 3017 3014 3012 3009 3007 3006 3005 3003 3002 3001 3000 2999 2998 2997 2996 2996 2995 2994 2994 2994 2994 2993 2992 2990 2990 2989 2989 2989 2990 2991 2992 2993 2994 2994 2995 2995 2996 2997 2997 2998 2999 3000 3001 3002 3003 3006 3007
3025 3022 3020 3017 3015 3012 3010 3007 3005 3002 3001 2999 2998 2997 2996 2995 2994 2993 2992 2991 2990 2989 2989 2988 2988 2988 2988 2987 2986 2985 2984 2984 2984 2984 2984 2985 2986 2987 2989 2989 2990 2990 2990 2991 2992 2992 2994 2995 2996 2997 2999 3000